contact:dominique.lefevre@mio.osupytheas.fr, maurice.libes@osupytheas.fr, didier.mallarino@osupytheas.fr
Project:EMSO http://www.emso-fr.org/EMSO-France
Depth: 2436.0 m
Title:EMSO Ligure Ouest : Data MII capteur AQUADOPP
Date,Latitude,Longitude,X_East,Y_North,Z_Up,Amplitude_X,Amplitude_Y,Amplitude_Z,Batterie,SoundSpeed,Heading,Pitch,Roll,Pressure,TIS,Speed,Direction
, degrees North, degrees East, m.s-1, m.s-1,m.s-1, 1, 1, 1, Volt, m.s-1, degree, degree, degree, dbar, degree_C, m.s-1, degree
2019-11-07T10:12:23,42.805,6.029,0.075,-0.024,-0.038,102.0,104.0,100.0,13.4,1505.1,323.7,-0.8,1.8,2470.452,13.27,0.078,107.7
2019-11-07T10:15:26,42.805,6.029,0.078,-0.031,-0.017,101.0,103.0,99.0,13.4,1505.2,323.6,-0.8,1.8,2470.357,13.29,0.083,111.7
2019-11-07T10:21:21,42.805,6.029,0.048,-0.014,-0.049,102.0,103.0,98.0,13.4,1505.2,326.6,-0.8,1.9,2470.241,13.29,0.05,106.3
2019-11-07T10:24:24,42.805,6.029,0.049,-0.016,-0.003,102.0,103.0,101.0,13.4,1505.2,326.1,-0.7,1.8,2470.154,13.3,0.051,108.1
2019-11-07T10:27:27,42.805,6.029,0.057,-0.026,0.0,101.0,104.0,99.0,13.4,1505.3,323.2,-0.7,1.9,2470.043,13.31,0.062,114.5
2019-11-07T10:30:30,42.805,6.029,0.049,-0.014,0.016,101.0,103.0,99.0,13.4,1505.3,326.3,-0.7,1.9,2470.033,13.31,0.05,105.9
2019-11-07T10:33:33,42.805,6.029,0.089,-0.016,-0.004,101.0,103.0,99.0,13.3,1505.3,324.3,-0.7,1.8,2469.972,13.31,0.09,100.2
2019-11-07T10:36:36,42.805,6.029,0.056,-0.025,-0.027,101.0,104.0,99.0,13.4,1505.3,323.2,-0.7,1.9,2469.969,13.32,0.061,114.1
2019-11-07T10:39:39,42.805,6.029,0.06,-0.004,0.009,101.0,104.0,99.0,13.4,1505.3,325.0,-0.7,1.8,2469.884,13.32,0.06,93.8
2019-11-07T10:42:42,42.805,6.029,0.064,0.001,0.013,101.0,102.0,100.0,13.3,1505.3,327.1,-0.7,1.9,2469.894,13.32,0.064,89.1
2019-11-07T10:45:45,42.805,6.029,0.043,-0.029,-0.009,101.0,103.0,99.0,13.3,1505.3,323.8,-0.7,1.8,2469.889,13.32,0.051,124.0
2019-11-07T10:48:48,42.805,6.029,0.048,-0.029,-0.029,101.0,103.0,99.0,13.3,1505.3,323.8,-0.7,1.8,2469.911,13.32,0.056,121.1
2019-11-07T10:51:51,42.805,6.029,0.048,0.0,-0.035,101.0,104.0,99.0,13.4,1505.3,323.8,-0.7,1.8,2469.851,13.32,0.048,90.0
2019-11-07T10:54:54,42.805,6.029,0.065,-0.042,-0.023,100.0,103.0,99.0,13.4,1505.3,324.4,-0.7,1.8,2469.864,13.32,0.077,122.9
2019-11-07T10:57:57,42.805,6.029,0.052,-0.02,-0.007,102.0,102.0,99.0,13.3,1505.3,325.1,-0.7,1.8,2469.873,13.32,0.055,111.0
2019-11-07T11:01:00,42.805,6.029,0.051,-0.034,-0.004,101.0,103.0,99.0,13.3,1505.3,326.8,-0.7,1.8,2469.891,13.32,0.061,123.7
2019-11-07T11:04:03,42.805,6.029,0.045,-0.031,-0.026,101.0,103.0,99.0,13.3,1505.3,327.8,-0.7,1.8,2469.887,13.32,0.054,124.6
2019-11-07T11:07:06,42.805,6.029,0.043,-0.031,-0.017,101.0,103.0,100.0,13.3,1505.3,327.6,-0.7,1.8,2469.873,13.32,0.053,125.8
2019-11-07T11:10:09,42.805,6.029,0.054,-0.035,-0.016,99.0,103.0,99.0,13.4,1505.3,326.9,-0.7,1.8,2469.904,13.32,0.064,123.0
2019-11-07T11:13:12,42.805,6.029,0.044,-0.022,-0.036,100.0,102.0,99.0,13.4,1505.3,325.8,-0.7,1.8,2469.907,13.32,0.049,116.6
2019-11-07T11:16:15,42.805,6.029,0.051,-0.025,-0.019,101.0,102.0,99.0,13.3,1505.3,327.7,-0.7,1.8,2469.893,13.32,0.056,116.1
2019-11-07T11:19:18,42.805,6.029,0.048,-0.018,-0.037,102.0,104.0,98.0,13.4,1505.3,326.5,-0.7,1.8,2469.894,13.32,0.051,110.6
2019-11-07T11:22:21,42.805,6.029,0.053,-0.03,-0.004,101.0,102.0,98.0,13.4,1505.3,327.0,-0.7,1.8,2469.88,13.32,0.06,119.5
2019-11-07T11:25:24,42.805,6.029,0.042,-0.025,-0.051,99.0,101.0,98.0,13.4,1505.3,327.0,-0.7,1.8,2469.868,13.32,0.048,120.8
2019-11-07T11:28:27,42.805,6.029,0.07,-0.02,-0.041,99.0,103.0,99.0,13.3,1505.3,324.3,-0.7,1.8,2469.912,13.32,0.072,105.9
2019-11-07T11:31:30,42.805,6.029,0.045,-0.008,-0.018,100.0,102.0,99.0,13.4,1505.3,324.8,-0.7,1.9,2469.903,13.32,0.045,100.1
2019-11-07T11:34:33,42.805,6.029,0.078,-0.018,-0.014,100.0,102.0,98.0,13.3,1505.3,328.1,-0.7,1.9,2469.931,13.32,0.08,103.0
2019-11-07T11:37:36,42.805,6.029,0.065,-0.018,-0.013,99.0,101.0,99.0,13.4,1505.3,326.6,-0.7,1.9,2469.921,13.32,0.067,105.5
2019-11-07T11:40:39,42.805,6.029,0.067,-0.011,-0.005,100.0,101.0,98.0,13.4,1505.3,325.9,-0.7,1.8,2469.914,13.32,0.067,99.3
2019-11-07T11:43:42,42.805,6.029,0.036,-0.037,-0.034,102.0,102.0,97.0,13.3,1505.3,326.8,-0.7,1.8,2469.94,13.32,0.051,135.8
2019-11-07T11:46:45,42.805,6.029,0.042,-0.021,-0.005,99.0,102.0,99.0,13.3,1505.3,327.9,-0.7,1.8,2469.886,13.32,0.046,116.6
2019-11-07T11:49:48,42.805,6.029,0.068,-0.022,-0.038,99.0,103.0,99.0,13.4,1505.3,325.0,-0.7,1.8,2469.887,13.32,0.071,107.9
2019-11-07T11:52:51,42.805,6.029,0.046,-0.008,-0.002,100.0,102.0,98.0,13.3,1505.3,326.0,-0.7,1.8,2469.946,13.32,0.046,99.9
2019-11-07T11:55:54,42.805,6.029,0.065,-0.018,-0.03,100.0,101.0,99.0,13.3,1505.3,327.0,-0.7,1.8,2469.938,13.32,0.067,105.5
2019-11-07T11:58:57,42.805,6.029,0.063,-0.014,-0.019,99.0,102.0,99.0,13.4,1505.3,323.1,-0.7,1.8,2469.94,13.32,0.064,102.5
2019-11-07T12:02:00,42.805,6.029,0.042,-0.016,-0.041,100.0,102.0,98.0,13.3,1505.3,323.5,-0.7,1.8,2469.931,13.32,0.044,110.9
2019-11-07T12:05:03,42.805,6.029,0.061,-0.033,-0.006,99.0,102.0,99.0,13.4,1505.3,323.9,-0.7,1.8,2469.937,13.32,0.069,118.4
2019-11-07T12:08:06,42.805,6.029,0.059,-0.018,-0.016,99.0,102.0,99.0,13.4,1505.3,326.5,-0.7,1.9,2469.939,13.32,0.061,107.0
2019-11-07T12:11:09,42.805,6.029,0.072,-0.026,-0.004,99.0,102.0,98.0,13.4,1505.3,327.8,-0.7,1.8,2469.969,13.32,0.076,109.9
2019-11-07T12:14:12,42.805,6.029,0.066,-0.03,-0.022,101.0,102.0,98.0,13.4,1505.3,325.2,-0.7,1.8,2469.941,13.32,0.072,114.4
2019-11-07T12:17:15,42.805,6.029,0.077,-0.022,-0.008,99.0,102.0,99.0,13.4,1505.3,326.7,-0.7,1.8,2469.977,13.32,0.08,105.9
2019-11-07T12:20:18,42.805,6.029,0.067,-0.027,-0.062,99.0,102.0,99.0,13.4,1505.3,326.0,-0.7,1.8,2469.984,13.32,0.072,111.9
2019-11-07T12:23:21,42.805,6.029,0.05,-0.013,-0.02,100.0,103.0,97.0,13.4,1505.3,323.5,-0.7,1.8,2469.939,13.32,0.051,104.6
2019-11-07T12:26:24,42.805,6.029,0.059,-0.026,-0.007,101.0,102.0,98.0,13.4,1505.3,323.0,-0.7,1.8,2469.979,13.32,0.064,113.8
2019-11-07T12:29:27,42.805,6.029,0.033,-0.022,-0.015,100.0,103.0,98.0,13.3,1505.3,323.3,-0.7,1.8,2469.966,13.32,0.039,123.7
2019-11-07T12:32:30,42.805,6.029,0.045,-0.028,-0.016,100.0,101.0,99.0,13.4,1505.3,326.9,-0.7,1.8,2469.984,13.32,0.053,121.9
2019-11-07T12:35:33,42.805,6.029,0.076,-0.038,-0.012,99.0,102.0,98.0,13.4,1505.3,327.7,-0.7,1.9,2469.957,13.32,0.084,116.6
2019-11-07T12:38:36,42.805,6.029,0.05,-0.024,0.01,101.0,102.0,98.0,13.4,1505.3,325.2,-0.7,1.8,2469.959,13.32,0.055,115.6
2019-11-07T12:41:39,42.805,6.029,0.08,-0.02,0.012,101.0,101.0,98.0,13.3,1505.3,323.4,-0.7,1.9,2470.004,13.32,0.082,104.0
2019-11-07T12:44:42,42.805,6.029,0.058,-0.014,-0.008,100.0,102.0,98.0,13.4,1505.3,324.6,-0.7,1.9,2470.012,13.32,0.059,103.6
2019-11-07T12:47:45,42.805,6.029,0.073,-0.032,-0.004,102.0,100.0,98.0,13.4,1505.3,326.1,-0.7,1.9,2469.959,13.32,0.079,113.7
2019-11-07T12:50:48,42.805,6.029,0.043,-0.017,-0.048,99.0,101.0,98.0,13.4,1505.3,324.1,-0.7,1.8,2469.97,13.32,0.046,111.6
2019-11-07T12:53:51,42.805,6.029,0.036,-0.015,-0.033,100.0,102.0,99.0,13.4,1505.3,327.2,-0.7,1.8,2469.986,13.32,0.039,112.6
2019-11-07T12:56:54,42.805,6.029,0.06,-0.038,-0.024,100.0,102.0,98.0,13.4,1505.3,327.9,-0.7,1.8,2469.989,13.32,0.071,122.3
2019-11-07T12:59:57,42.805,6.029,0.052,-0.02,-0.012,100.0,101.0,99.0,13.4,1505.3,326.3,-0.7,1.9,2470.004,13.32,0.055,111.0
2019-11-07T13:03:00,42.805,6.029,0.052,-0.019,-0.011,100.0,102.0,98.0,13.4,1505.3,325.6,-0.7,1.8,2470.028,13.32,0.055,110.1
2019-11-07T13:06:03,42.805,6.029,0.063,-0.023,0.0,101.0,101.0,99.0,13.3,1505.3,324.4,-0.7,1.8,2469.998,13.32,0.067,110.1
2019-11-07T13:09:06,42.805,6.029,0.062,-0.027,-0.036,100.0,101.0,98.0,13.3,1505.3,326.3,-0.7,1.9,2470.013,13.32,0.067,113.5
2019-11-07T13:12:09,42.805,6.029,0.054,-0.022,-0.038,101.0,101.0,98.0,13.3,1505.3,323.5,-0.7,1.8,2470.025,13.32,0.058,112.2
2019-11-07T13:15:12,42.805,6.029,0.054,-0.047,-0.081,101.0,101.0,98.0,13.4,1505.3,328.0,-0.7,1.9,2470.014,13.32,0.071,131.0
2019-11-07T13:18:15,42.805,6.029,0.032,-0.013,-0.037,100.0,102.0,98.0,13.4,1505.3,328.5,-0.7,1.8,2470.013,13.32,0.034,112.1
2019-11-07T13:21:18,42.805,6.029,0.077,-0.033,0.0,101.0,101.0,98.0,13.3,1505.3,327.2,-0.7,1.8,2470.029,13.32,0.083,113.2
2019-11-07T13:24:21,42.805,6.029,0.063,-0.019,-0.013,101.0,103.0,98.0,13.3,1505.3,326.8,-0.7,1.8,2469.997,13.32,0.065,106.8
2019-11-07T13:27:24,42.805,6.029,0.072,-0.013,-0.032,99.0,102.0,98.0,13.4,1505.3,325.8,-0.7,1.9,2469.989,13.32,0.073,100.2
2019-11-07T13:30:27,42.805,6.029,0.054,-0.013,0.007,100.0,101.0,99.0,13.4,1505.3,326.7,-0.7,1.8,2469.997,13.32,0.055,103.5
2019-11-07T13:33:30,42.805,6.029,0.07,-0.046,0.007,100.0,102.0,99.0,13.4,1505.3,325.7,-0.7,1.8,2470.013,13.32,0.083,123.3
2019-11-07T13:36:33,42.805,6.029,0.06,-0.014,-0.004,99.0,102.0,99.0,13.3,1505.3,327.5,-0.6,1.8,2469.964,13.32,0.061,103.1
2019-11-07T13:39:38,42.805,6.029,0.062,-0.017,-0.054,102.0,102.0,100.0,13.4,1505.3,323.3,-0.7,1.8,2470.004,13.32,0.064,105.3
2019-11-07T13:42:40,42.805,6.029,0.078,-0.023,-0.002,100.0,101.0,99.0,13.3,1505.3,323.7,-0.7,1.9,2470.018,13.32,0.081,106.4
2019-11-07T13:45:43,42.805,6.029,0.04,-0.013,-0.035,100.0,101.0,99.0,13.3,1505.3,327.3,-0.7,1.9,2470.069,13.32,0.042,108.0
2019-11-07T13:48:46,42.805,6.029,0.045,-0.022,-0.051,101.0,102.0,98.0,13.3,1505.3,325.4,-0.7,1.8,2470.028,13.32,0.05,116.1
2019-11-07T13:51:49,42.805,6.029,0.068,-0.069,-0.048,101.0,102.0,98.0,13.4,1505.3,327.4,-0.8,1.8,2470.017,13.32,0.096,135.4
2019-11-07T13:54:52,42.805,6.029,0.052,-0.046,-0.079,102.0,103.0,98.0,13.4,1505.3,326.3,-0.7,1.8,2470.074,13.32,0.069,131.5
2019-11-07T13:57:55,42.805,6.029,0.062,-0.04,-0.038,102.0,100.0,98.0,13.3,1505.3,328.2,-0.7,1.8,2469.998,13.32,0.073,122.8
2019-11-07T14:00:59,42.805,6.029,0.046,-0.035,-0.002,101.0,101.0,99.0,13.4,1505.3,326.6,-0.7,1.8,2470.005,13.32,0.057,127.3
2019-11-07T14:04:02,42.805,6.029,0.03,-0.002,-0.027,101.0,102.0,99.0,13.4,1505.3,326.0,-0.7,1.8,2470.014,13.32,0.03,93.8
2019-11-07T14:07:05,42.805,6.029,0.049,-0.032,-0.019,101.0,102.0,99.0,13.4,1505.3,326.0,-0.7,1.8,2470.014,13.32,0.058,123.2
2019-11-07T14:10:08,42.805,6.029,0.047,-0.031,-0.035,101.0,102.0,99.0,13.4,1505.3,325.5,-0.7,1.8,2470.076,13.32,0.056,123.4
2019-11-07T14:13:11,42.805,6.029,0.036,-0.013,-0.051,102.0,101.0,98.0,13.3,1505.3,325.3,-0.7,1.8,2470.034,13.32,0.038,109.9
2019-11-07T14:16:14,42.805,6.029,0.046,-0.04,-0.021,101.0,102.0,99.0,13.4,1505.3,326.7,-0.7,1.8,2470.07,13.32,0.06,131.0
2019-11-07T14:19:17,42.805,6.029,0.026,-0.007,-0.067,100.0,102.0,99.0,13.4,1505.3,327.6,-0.7,1.8,2470.064,13.32,0.026,105.1
2019-11-07T14:22:20,42.805,6.029,0.051,-0.017,-0.032,102.0,102.0,99.0,13.4,1505.3,326.1,-0.7,1.9,2470.044,13.32,0.053,108.4
2019-11-07T14:25:23,42.805,6.029,0.056,-0.017,-0.038,101.0,102.0,99.0,13.4,1505.3,325.5,-0.7,1.8,2470.04,13.32,0.058,106.9
2019-11-07T14:28:26,42.805,6.029,0.063,-0.018,-0.011,102.0,104.0,99.0,13.4,1505.3,326.5,-0.7,1.8,2470.047,13.32,0.065,105.9
2019-11-07T14:31:29,42.805,6.029,0.06,-0.036,-0.057,101.0,102.0,98.0,13.4,1505.3,325.3,-0.7,1.8,2470.067,13.32,0.069,121.0
2019-11-07T14:34:32,42.805,6.029,0.042,-0.014,-0.032,101.0,102.0,99.0,13.4,1505.3,324.9,-0.7,1.8,2470.057,13.32,0.044,108.4
2019-11-07T14:37:35,42.805,6.029,0.033,-0.026,-0.026,102.0,102.0,99.0,13.3,1505.3,324.8,-0.7,1.8,2470.014,13.32,0.042,128.2
2019-11-07T14:40:39,42.805,6.029,0.019,-0.001,-0.009,99.0,101.0,100.0,13.4,1505.3,326.6,-0.7,1.8,2470.041,13.32,0.019,93.0
2019-11-07T14:43:43,42.805,6.029,0.032,-0.018,-0.038,101.0,103.0,99.0,13.3,1505.3,324.9,-0.7,1.8,2470.043,13.32,0.036,119.4
2019-11-07T14:46:46,42.805,6.029,0.038,-0.008,-0.04,102.0,102.0,99.0,13.4,1505.3,324.6,-0.7,1.8,2470.072,13.32,0.038,101.9
2019-11-07T14:49:49,42.805,6.029,0.031,-0.004,-0.027,100.0,103.0,99.0,13.4,1505.3,326.6,-0.7,1.8,2470.028,13.32,0.031,97.3
2019-11-07T14:52:52,42.805,6.029,0.025,-0.01,-0.052,101.0,103.0,99.0,13.3,1505.3,325.2,-0.7,1.9,2470.061,13.32,0.026,111.8
2019-11-07T14:55:55,42.805,6.029,0.009,-0.008,-0.058,102.0,103.0,100.0,13.3,1505.3,325.6,-0.7,1.9,2470.082,13.32,0.012,131.6
2019-11-07T14:58:58,42.805,6.029,0.048,-0.015,-0.036,101.0,103.0,99.0,13.3,1505.3,326.7,-0.7,1.8,2470.074,13.32,0.05,107.4
2019-11-07T15:02:01,42.805,6.029,0.033,-0.032,-0.033,102.0,103.0,99.0,13.4,1505.3,327.1,-0.7,1.8,2470.106,13.32,0.045,134.1
2019-11-07T15:05:04,42.805,6.029,0.037,-0.019,0.008,102.0,102.0,100.0,13.4,1505.3,327.0,-0.7,1.8,2470.089,13.32,0.041,117.2
2019-11-07T15:08:10,42.805,6.029,0.023,-0.029,-0.028,102.0,103.0,100.0,13.4,1505.3,325.9,-0.7,1.8,2470.046,13.32,0.037,141.6
2019-11-07T15:11:10,42.805,6.029,0.039,-0.02,-0.064,101.0,104.0,99.0,13.4,1505.3,325.5,-0.7,1.8,2470.073,13.32,0.043,117.1
2019-11-07T15:14:13,42.805,6.029,0.04,-0.028,-0.019,102.0,102.0,99.0,13.3,1505.3,325.1,-0.7,1.8,2470.055,13.32,0.048,125.0
2019-11-07T15:17:16,42.805,6.029,0.037,-0.029,-0.025,102.0,103.0,99.0,13.4,1505.3,327.4,-0.7,1.9,2470.1,13.32,0.047,128.1
2019-11-07T15:20:20,42.805,6.029,0.037,-0.032,-0.023,101.0,102.0,99.0,13.4,1505.3,323.3,-0.7,1.8,2470.087,13.32,0.048,130.9
2019-11-07T15:23:22,42.805,6.029,0.023,-0.028,-0.043,102.0,102.0,99.0,13.3,1505.3,326.9,-0.7,1.8,2470.112,13.32,0.036,140.6
2019-11-07T15:26:25,42.805,6.029,0.03,0.005,-0.023,101.0,102.0,99.0,13.3,1505.3,325.4,-0.7,1.8,2470.057,13.32,0.03,80.5
2019-11-07T15:29:29,42.805,6.029,0.008,-0.014,-0.027,102.0,102.0,99.0,13.3,1505.3,328.6,-0.7,1.8,2470.055,13.32,0.016,150.3
2019-11-07T15:32:31,42.805,6.029,0.022,-0.002,-0.009,102.0,102.0,100.0,13.3,1505.3,325.5,-0.7,1.8,2470.084,13.32,0.022,95.2
2019-11-07T15:35:34,42.805,6.029,0.006,-0.005,-0.017,101.0,103.0,99.0,13.4,1505.3,326.0,-0.7,1.8,2470.084,13.32,0.007,129.8
2019-11-07T15:38:37,42.805,6.029,-0.021,-0.004,-0.032,102.0,105.0,100.0,13.4,1505.3,324.7,-0.7,1.8,2470.07,13.32,0.021,259.2
2019-11-07T15:41:40,42.805,6.029,0.033,-0.013,0.002,102.0,104.0,99.0,13.4,1505.3,327.7,-0.7,1.8,2470.085,13.32,0.035,111.5
2019-11-07T15:44:43,42.805,6.029,0.008,-0.009,-0.04,104.0,104.0,99.0,13.4,1505.3,328.6,-0.7,1.8,2470.085,13.32,0.012,138.4
2019-11-07T15:47:46,42.805,6.029,0.018,-0.031,-0.007,101.0,104.0,99.0,13.4,1505.3,328.1,-0.7,1.8,2470.033,13.32,0.035,149.9
2019-11-07T15:50:49,42.805,6.029,0.0,-0.019,-0.018,101.0,104.0,99.0,13.3,1505.3,328.1,-0.7,1.8,2470.098,13.32,0.019,180.0
2019-11-07T15:53:52,42.805,6.029,0.02,-0.029,-0.042,101.0,105.0,99.0,13.4,1505.3,326.7,-0.7,1.8,2470.074,13.32,0.035,145.4
2019-11-07T15:56:55,42.805,6.029,-0.003,0.004,-0.035,101.0,103.0,100.0,13.3,1505.3,326.5,-0.7,1.8,2470.064,13.32,0.005,323.1
2019-11-07T15:59:58,42.805,6.029,0.015,-0.015,-0.051,102.0,105.0,99.0,13.4,1505.3,326.9,-0.7,1.8,2470.088,13.32,0.021,135.0
2019-11-07T16:03:01,42.805,6.029,0.017,0.007,-0.028,101.0,103.0,99.0,13.4,1505.3,325.8,-0.7,1.8,2470.076,13.32,0.018,67.6
2019-11-07T16:06:04,42.805,6.029,-0.003,-0.016,-0.016,102.0,105.0,100.0,13.4,1505.3,327.8,-0.7,1.8,2470.082,13.32,0.016,190.6
2019-11-07T16:09:07,42.805,6.029,0.007,-0.005,-0.048,103.0,105.0,98.0,13.4,1505.3,327.3,-0.7,1.9,2470.102,13.32,0.008,125.5
2019-11-07T16:12:10,42.805,6.029,0.0,0.001,-0.059,102.0,106.0,100.0,13.4,1505.3,327.4,-0.7,1.8,2470.105,13.32,0.001,0.0
2019-11-07T16:15:13,42.805,6.029,0.004,-0.03,-0.05,102.0,105.0,99.0,13.3,1505.3,323.6,-0.7,1.8,2470.069,13.32,0.03,172.4
2019-11-07T16:18:16,42.805,6.029,0.002,-0.021,-0.019,102.0,104.0,99.0,13.4,1505.3,325.1,-0.7,1.8,2470.122,13.32,0.021,174.6
2019-11-07T16:21:19,42.805,6.029,-0.009,0.002,-0.062,102.0,104.0,99.0,13.3,1505.3,323.0,-0.7,1.8,2470.082,13.32,0.009,282.5
2019-11-07T16:24:22,42.805,6.029,0.023,-0.01,0.003,102.0,104.0,99.0,13.4,1505.3,325.6,-0.7,1.8,2470.098,13.32,0.025,113.5
2019-11-07T16:27:25,42.805,6.029,0.023,-0.014,-0.012,101.0,104.0,99.0,13.4,1505.3,328.6,-0.8,1.8,2470.155,13.32,0.026,121.3
2019-11-07T16:30:28,42.805,6.029,0.0,-0.018,-0.026,101.0,104.0,100.0,13.4,1505.3,324.8,-0.7,1.8,2470.109,13.32,0.018,180.0
2019-11-07T16:33:31,42.805,6.029,-0.01,-0.015,-0.062,103.0,105.0,99.0,13.3,1505.3,325.0,-0.7,1.8,2470.083,13.32,0.018,213.7
2019-11-07T16:36:34,42.805,6.029,-0.017,-0.02,-0.072,102.0,106.0,98.0,13.4,1505.3,323.1,-0.7,1.8,2470.079,13.32,0.026,220.4
2019-11-07T16:39:37,42.805,6.029,0.042,0.002,0.021,99.0,105.0,100.0,13.4,1505.3,325.2,-0.7,1.8,2470.115,13.32,0.042,87.3
2019-11-07T16:42:40,42.805,6.029,0.045,0.014,-0.002,102.0,103.0,99.0,13.3,1505.3,327.8,-0.7,1.8,2470.099,13.32,0.047,72.7
2019-11-07T16:45:43,42.805,6.029,-0.007,-0.016,-0.067,102.0,105.0,98.0,13.4,1505.3,326.6,-0.7,1.9,2470.063,13.32,0.017,203.6
2019-11-07T16:48:46,42.805,6.029,-0.002,-0.004,-0.055,103.0,104.0,98.0,13.4,1505.3,323.7,-0.7,1.8,2470.063,13.33,0.004,206.6
2019-11-07T16:51:49,42.805,6.029,-0.011,-0.009,-0.045,101.0,105.0,100.0,13.4,1505.3,325.3,-0.7,1.8,2470.091,13.33,0.014,230.7
2019-11-07T16:54:52,42.805,6.029,0.024,0.007,-0.027,102.0,103.0,100.0,13.4,1505.3,324.9,-0.7,1.8,2470.058,13.33,0.025,73.7
2019-11-07T16:57:55,42.805,6.029,0.008,0.0,-0.002,102.0,105.0,100.0,13.3,1505.3,326.6,-0.7,1.8,2470.084,13.33,0.008,90.0
2019-11-07T17:00:58,42.805,6.029,0.014,-0.012,-0.034,103.0,106.0,99.0,13.3,1505.3,325.9,-0.7,1.8,2470.053,13.33,0.018,130.6
2019-11-07T17:04:01,42.805,6.029,0.042,0.006,0.011,101.0,105.0,99.0,13.3,1505.3,326.7,-0.7,1.8,2470.072,13.33,0.042,81.9
2019-11-07T17:07:04,42.805,6.029,0.012,-0.002,-0.032,104.0,102.0,98.0,13.3,1505.3,326.5,-0.7,1.8,2470.03,13.33,0.012,99.5
2019-11-07T17:10:07,42.805,6.029,0.026,0.014,0.007,102.0,106.0,100.0,13.4,1505.3,327.8,-0.7,1.8,2470.098,13.33,0.029,61.7
2019-11-07T17:13:10,42.805,6.029,-0.017,0.009,-0.027,102.0,105.0,99.0,13.3,1505.3,325.3,-0.7,1.8,2470.111,13.33,0.019,297.9
2019-11-07T17:16:13,42.805,6.029,0.007,0.007,-0.037,101.0,106.0,99.0,13.4,1505.3,327.2,-0.7,1.8,2470.11,13.33,0.009,45.0
2019-11-07T17:19:16,42.805,6.029,-0.013,-0.015,-0.029,101.0,105.0,100.0,13.3,1505.3,325.6,-0.7,1.8,2470.091,13.33,0.019,220.9
2019-11-07T17:22:19,42.805,6.029,0.014,0.001,-0.01,100.0,105.0,98.0,13.4,1505.3,325.3,-0.7,1.8,2470.119,13.33,0.014,85.9
2019-11-07T17:25:22,42.805,6.029,0.005,0.013,-0.026,102.0,106.0,97.0,13.4,1505.3,325.7,-0.7,1.8,2470.083,13.33,0.013,21.0
2019-11-07T17:28:25,42.805,6.029,0.015,0.038,-0.029,101.0,106.0,100.0,13.4,1505.3,324.0,-0.7,1.8,2470.106,13.33,0.04,21.5
2019-11-07T17:31:28,42.805,6.029,0.023,0.005,-0.024,101.0,106.0,100.0,13.4,1505.3,325.9,-0.7,1.8,2470.084,13.33,0.023,77.7
2019-11-07T17:34:31,42.805,6.029,0.0,0.001,-0.009,102.0,105.0,100.0,13.4,1505.3,325.9,-0.7,1.8,2470.105,13.33,0.001,0.0
2019-11-07T17:37:34,42.805,6.029,0.002,-0.015,-0.06,100.0,105.0,99.0,13.4,1505.3,328.3,-0.7,1.9,2470.094,13.33,0.015,172.4
2019-11-07T17:40:37,42.805,6.029,-0.01,-0.01,-0.052,101.0,105.0,99.0,13.4,1505.3,323.6,-0.7,1.9,2470.084,13.33,0.014,225.0
2019-11-07T17:43:40,42.805,6.029,0.002,0.012,-0.033,102.0,105.0,100.0,13.3,1505.3,326.7,-0.7,1.8,2470.084,13.33,0.012,9.5
2019-11-07T17:46:43,42.805,6.029,-0.027,0.0,-0.056,103.0,104.0,98.0,13.4,1505.3,325.7,-0.7,1.8,2470.12,13.33,0.026,270.0
2019-11-07T17:49:46,42.805,6.029,-0.009,-0.006,-0.041,102.0,104.0,100.0,13.3,1505.3,324.6,-0.7,1.9,2470.099,13.33,0.01,236.3
2019-11-07T17:52:49,42.805,6.029,-0.019,0.005,-0.052,101.0,103.0,98.0,13.4,1505.3,327.7,-0.7,1.8,2470.11,13.33,0.019,284.7
2019-11-07T17:55:52,42.805,6.029,0.022,-0.008,0.007,100.0,104.0,99.0,13.3,1505.3,326.1,-0.7,1.8,2470.087,13.33,0.023,110.0
2019-11-07T17:58:55,42.805,6.029,0.024,0.009,0.006,102.0,104.0,99.0,13.4,1505.3,325.8,-0.8,1.8,2470.094,13.33,0.025,69.4
2019-11-07T18:01:58,42.805,6.029,0.02,0.001,-0.021,100.0,104.0,99.0,13.4,1505.3,326.9,-0.7,1.8,2470.072,13.33,0.02,87.1
2019-11-07T18:05:01,42.805,6.029,0.006,-0.003,-0.036,102.0,104.0,99.0,13.3,1505.3,326.6,-0.7,1.8,2470.07,13.33,0.006,116.6
2019-11-07T18:08:04,42.805,6.029,-0.001,-0.005,-0.039,101.0,104.0,100.0,13.4,1505.3,323.2,-0.7,1.8,2470.101,13.33,0.005,191.3
2019-11-07T18:11:07,42.805,6.029,0.037,0.009,0.012,102.0,105.0,99.0,13.3,1505.3,326.3,-0.7,1.8,2470.095,13.33,0.038,76.3
2019-11-07T18:14:10,42.805,6.029,-0.023,0.01,-0.039,101.0,103.0,100.0,13.3,1505.3,325.3,-0.7,1.8,2470.098,13.33,0.025,293.5
2019-11-07T18:17:13,42.805,6.029,0.001,-0.001,-0.053,102.0,103.0,99.0,13.4,1505.3,327.3,-0.7,1.8,2470.071,13.33,0.001,135.0
2019-11-07T18:20:16,42.805,6.029,0.003,0.017,-0.042,102.0,103.0,99.0,13.4,1505.3,328.1,-0.7,1.8,2470.108,13.33,0.017,10.0
2019-11-07T18:23:19,42.805,6.029,0.016,0.013,-0.033,102.0,104.0,98.0,13.3,1505.3,328.5,-0.7,1.8,2470.087,13.33,0.02,50.9
2019-11-07T18:26:22,42.805,6.029,0.017,0.011,-0.019,103.0,103.0,97.0,13.4,1505.3,323.6,-0.7,1.8,2470.049,13.33,0.02,57.1
2019-11-07T18:29:25,42.805,6.029,0.034,-0.002,0.015,102.0,103.0,99.0,13.4,1505.4,324.7,-0.7,1.8,2470.063,13.34,0.034,93.4
2019-11-07T18:32:28,42.805,6.029,0.013,-0.003,-0.033,100.0,105.0,99.0,13.3,1505.4,326.3,-0.7,1.8,2470.06,13.34,0.013,103.0
2019-11-07T18:35:31,42.805,6.029,0.023,0.004,-0.012,100.0,105.0,97.0,13.4,1505.4,324.2,-0.7,1.8,2470.072,13.34,0.023,80.1
2019-11-07T18:38:34,42.805,6.029,0.012,0.01,-0.008,100.0,105.0,100.0,13.3,1505.4,325.6,-0.7,1.8,2470.027,13.34,0.015,50.2
2019-11-07T18:41:37,42.805,6.029,0.02,0.01,0.007,101.0,103.0,98.0,13.4,1505.3,325.0,-0.7,1.8,2470.085,13.33,0.022,63.4
2019-11-07T18:44:40,42.805,6.029,0.023,-0.002,-0.02,99.0,103.0,99.0,13.4,1505.3,325.1,-0.7,1.8,2470.072,13.33,0.023,95.0
2019-11-07T18:47:43,42.805,6.029,0.0,0.03,-0.007,100.0,105.0,98.0,13.4,1505.3,325.6,-0.7,1.8,2470.137,13.33,0.03,0.0
2019-11-07T18:50:46,42.805,6.029,0.01,0.019,-0.039,102.0,103.0,98.0,13.3,1505.4,325.0,-0.7,1.8,2470.082,13.34,0.021,27.8
2019-11-07T18:53:49,42.805,6.029,0.046,0.013,-0.019,100.0,103.0,98.0,13.4,1505.4,327.7,-0.7,1.8,2470.046,13.34,0.047,74.2
2019-11-07T18:56:52,42.805,6.029,0.014,0.018,-0.032,104.0,103.0,99.0,13.4,1505.4,323.9,-0.7,1.9,2470.037,13.34,0.022,37.9
2019-11-07T18:59:55,42.805,6.029,0.005,0.005,-0.031,102.0,102.0,98.0,13.3,1505.4,326.6,-0.7,1.8,2470.037,13.34,0.007,45.0
2019-11-07T19:02:58,42.805,6.029,0.017,0.028,0.0,105.0,103.0,98.0,13.4,1505.4,325.3,-0.7,1.8,2470.067,13.34,0.032,31.3
2019-11-07T19:06:01,42.805,6.029,0.012,0.025,-0.074,100.0,103.0,97.0,13.4,1505.4,325.0,-0.7,1.8,2470.056,13.34,0.027,25.6
2019-11-07T19:09:04,42.805,6.029,0.0,0.005,-0.061,101.0,104.0,98.0,13.4,1505.4,327.3,-0.7,1.9,2470.044,13.34,0.005,0.0
2019-11-07T19:12:07,42.805,6.029,0.005,0.014,-0.046,101.0,107.0,97.0,13.4,1505.4,326.2,-0.7,1.9,2470.051,13.34,0.014,19.6
2019-11-07T19:15:10,42.805,6.029,0.006,0.015,-0.033,100.0,102.0,98.0,13.3,1505.4,328.4,-0.7,1.8,2469.999,13.34,0.016,21.8
2019-11-07T19:18:13,42.805,6.029,0.008,-0.008,-0.029,103.0,103.0,98.0,13.4,1505.4,325.1,-0.7,1.8,2470.017,13.34,0.011,135.0
2019-11-07T19:21:16,42.805,6.029,0.024,0.013,0.018,102.0,105.0,100.0,13.4,1505.4,327.7,-0.7,1.9,2470.099,13.34,0.027,61.6
2019-11-07T19:24:19,42.805,6.029,-0.011,-0.013,-0.032,104.0,105.0,98.0,13.3,1505.4,327.9,-0.7,1.8,2470.012,13.34,0.017,220.2
2019-11-07T19:27:22,42.805,6.029,0.032,0.023,-0.019,101.0,104.0,100.0,13.4,1505.4,326.0,-0.7,1.8,2470.076,13.34,0.039,54.3
2019-11-07T19:30:25,42.805,6.029,0.024,0.024,-0.031,102.0,103.0,99.0,13.4,1505.4,327.8,-0.7,1.8,2470.063,13.34,0.033,45.0
2019-11-07T19:33:28,42.805,6.029,0.018,0.0,0.007,105.0,105.0,100.0,13.4,1505.3,325.9,-0.7,1.9,2470.051,13.33,0.018,90.0
2019-11-07T19:36:31,42.805,6.029,0.037,-0.017,-0.008,101.0,107.0,99.0,13.4,1505.3,326.9,-0.7,1.8,2470.05,13.33,0.04,114.7
2019-11-07T19:39:34,42.805,6.029,0.041,0.004,-0.027,101.0,106.0,99.0,13.4,1505.3,325.0,-0.7,1.8,2470.053,13.33,0.041,84.4
2019-11-07T19:42:37,42.805,6.029,0.029,0.018,-0.047,102.0,106.0,99.0,13.3,1505.3,327.6,-0.7,1.8,2470.06,13.33,0.034,58.2
2019-11-07T19:45:40,42.805,6.029,0.03,-0.01,0.02,101.0,104.0,99.0,13.4,1505.3,326.8,-0.7,1.8,2470.037,13.33,0.031,108.4
2019-11-07T19:48:43,42.805,6.029,0.045,0.037,-0.029,102.0,104.0,98.0,13.4,1505.3,325.5,-0.7,1.9,2470.02,13.33,0.058,50.6
2019-11-07T19:51:46,42.805,6.029,0.016,0.005,0.0,101.0,106.0,104.0,13.4,1505.3,324.7,-0.7,1.8,2470.045,13.33,0.016,72.6
2019-11-07T19:54:49,42.805,6.029,0.029,0.014,-0.01,101.0,102.0,99.0,13.4,1505.3,325.1,-0.7,1.8,2470.048,13.33,0.032,64.2